Regional Weather Roundup
Issued by NWS Upton, NY

Current Version | Previous Version | Text Only | Print | Product List | Glossary On
Versions: 1 2 3 4 5 6 7 8 9 10 11 12 13 14 15 16 17 18 19 20 21 22 23 24 25 26 27 28 29 30 31 32 33 34 35 36 37 38 39 40 41 42 43 44 45 46 47 48 49 50
000 ASUS41 KOKX 070108 RWROKX REGIONAL WEATHER ROUNDUP NATIONAL WEATHER SERVICE NEW YORK NY 900 PM EDT MON JUL 06 2015 NOTE: "FAIR" INDICATES FEW OR NO CLOUDS BELOW 12,000 FEET WITH NO SIGNIFICANT WEATHER AND/OR OBSTRUCTIONS TO VISIBILITY. NYZ071-072-176-178-NJZ106-104-070200- NEW YORK CITY METRO AREA CITY SKY/WX TMP DP RH WIND PRES REMARKS CENTRAL PARK MOCLDY 75 62 64 S8 30.12F LAGUARDIA APRT MOCLDY 76 63 64 SE12 30.09F KENNEDY INTL MOCLDY 75 66 73 E8 30.11F NEWARK/LIBERTY CLOUDY 75 65 70 SE9 30.09F BRNX BOT. GARD N/A 75 63 64 S5 30.10F TETERBORO MOCLDY 76 64 66 SE7 30.08F $$ NYZ177-179-078>081-070200- LONG ISLAND NEW YORK CITY SKY/WX TMP DP RH WIND PRES REMARKS FARMINGDALE CLOUDY 74 65 73 SE10 30.11F ISLIP MOCLDY 74 64 71 SE9 30.10F SHIRLEY CLEAR 72 67 84 SE6 30.12F WESTHAMPTON CLEAR 72 68 87 SE6 30.13F MONTAUK POINT N/A 71 67 87 CALM 30.14F $$ NYZ052-065-067-070200- HUDSON VALLEY CITY SKY/WX TMP DP RH WIND PRES REMARKS WHITE PLAINS MOCLDY 73 65 75 SE7 30.11F NEWBURGH MOCLDY 75 68 78 VRB6 30.11F HAZE MONTGOMERY PTCLDY 74 66 76 CALM 30.08F POUGHKEEPSIE PTCLDY 75 66 73 CALM 30.08F ALBANY PTCLDY 79 66 64 S8 30.06F $$ NJZ001-105-106-008-010-013-015-019>022-104-070200- NEW JERSEY CITY SKY/WX TMP DP RH WIND PRES REMARKS NEWARK/LIBERTY CLOUDY 75 65 70 SE9 30.09F TETERBORO MOCLDY 76 64 66 SE7 30.08F CALDWELL PTCLDY 75 63 66 CALM 30.09F MORRISTOWN MOCLDY 75 68 78 SE6 30.09F SOMERVILLE PTCLDY 72 69 90 CALM 30.06F SUSSEX PTCLDY 75 66 73 VRB3 30.09F ANDOVER N/A 73 67 81 VRB3 30.09F TRENTON MOCLDY 76 70 82 SE9 30.07S MILLVILLE PTCLDY 77 73 87 SE9 30.07S ATLANTIC CITY NOT AVBL WRIGHTSTOWN CLOUDY 75 73 93 SE6 30.06F TOMS RIVER CLOUDY 73 72 94 SE7 30.10F BELMAR CLOUDY 73 64 73 SE8 30.09F $$ PAZ047>061-062-071-070200- EASTERN PENNSYLVANIA CITY SKY/WX TMP DP RH WIND PRES REMARKS PHILADELPHIA MOCLDY 80 69 69 SE9 30.06S ALLENTOWN MOCLDY 75 72 88 E8 30.06F SCRANTON MOCLDY 77 66 68 VRB3 30.06F $$ CTZ002-004>006-009-010-012-RIZ004-006-007-MAZ004-011-015-070200- SOUTHERN NEW ENGLAND IN CT CITY SKY/WX TMP DP RH WIND PRES REMARKS BRADLEY INTL PTCLDY 75 65 70 S7 30.10S HARTFORD CLEAR 75 65 70 S8 30.11R DANBURY PTCLDY 72 63 73 S5 30.13F WTRBRY/OXFORD PTCLDY 72 63 73 S8 30.14F BRIDGEPORT PTCLDY 73 64 73 S10 30.11F MERIDEN CLEAR 74 64 71 S5 30.11S NEW HAVEN PTCLDY 71 66 84 S6 30.11F CHESTER FAIR 72 64 78 S3 30.14S GROTON PTCLDY 70 64 81 CALM 30.13R WILLIMANTIC PTCLDY 74 63 68 SE3 30.12F IN RI CITY SKY/WX TMP DP RH WIND PRES REMARKS PROVIDENCE MOCLDY 72 63 73 SW7 30.13F BLOCK ISLAND PTCLDY 70 64 83 S10 30.14S WESTERLY PTCLDY 70 63 78 CALM 30.14S IN MA CITY SKY/WX TMP DP RH WIND PRES REMARKS BOSTON PTCLDY 76 65 68 S13 30.09F WORCESTER PTCLDY 74 65 73 SW10 30.14F WESTFIELD CLEAR 75 65 70 S9 30.10S PROVINCETOWN CLEAR 68 10 10 S7 30.13F NANTUCKET CLEAR 64 61 90 S5 30.15S $$ ANZ330-335-338-340-345-350-353-355-070200- COASTAL MARINE OBSERVATIONS STATION/POSITION TIME SKY/WX TEMP WIND PRES VSBY WAVE AIR SEA DIR/SP/G HT/PER (UTC) (F) (DEG/KT/KT) (MB) (MI) (FT/S) NY HARB ENTRANCE 0050 72 71 150/ 14/ 16 1018.5 2/ 6 4S FIRE IS 0003 71 N/A 2/ 6 20S FIRE ISLAND 0050 72 71 130/ 12/ 12 1018.9 2/ 9 GREAT SOUTH BAY 0000 73 77 190/ 12/ 16 N/A 23SW MTP 0050 71 69 180/ 8/ 10 1019.6 2/ 8 HUDSON CANYON NOT AVBL KINGS POINT 0000 75 70 190/ 7/ 10 1018.8 CENTRAL LI SOUND NOT AVBL EASTERN LI SOUND 0000 68 65 190/ 4/ 4 N/A ROBBINS REEF 0000 74 150/ 13/ 15 1018.1 $$ >>>>>>>>>>>>>>>>>>>>>>>>>>>> KEY <<<<<<<<<<<<<<<<<<<<<<<<<<< > < > SKY/WX - SKY CONDITION/PRESENT WEATHER < > TMP - TEMPERATURE IN FAHRENHEIT < > DP - DEWPOINT IN FAHRENHEIT < > RH - RELATIVE HUMIDITY IN PERCENT < > WIND - DIRECTION AND SPEED IN MPH < > PRES - MEAN SEA LEVEL PRESSURE IN INCHES OF HG < > WCI - WIND CHILL INDEX < > VSB - VISIBILITY IN MILES < > HX - HEAT INDEX < > TC - TEMPERATURE IN CELSIUS < > VRB - VARIABLE WIND DIRECTION < > < >>>>>>>>>>>>>>>>>>>>>>>>>>>> KEY <<<<<<<<<<<<<<<<<<<<<<<<<<<

USA.gov is the U.S. government's official web portal to all federal, state and local government web resources and services.